EUTELSAT 7 WEST A

Last updated on Jan. 23, 2021, 7:14 a.m. UTC

1 37816U 11051A   21022.84741693 -.00000047  00000-0  00000-0 0  9994
2 37816   0.0719  46.1696 0004011 192.7022 181.3015  1.00272971 34123
UTC
Height (km)
Latitude
Longitude
Inclination
Orbital Period
UTC large
Height (km)
Speed (km/s)
/
Latitude / Longitude
Inclination (degrees)
Orbital Period (minutes)
Azimuth
Elevation
Range (km)
Doppler Factor
iOS Compass Heading
iOS Angle

Next 30 passes for location: Hong Kong

Rise time Rise Azimuth (degrees) Set time Set Azimuth (degrees) Duration Max altitude (degrees)

No matching passes for this satellites